Starlink 30612

operational
NORAD ID: 58106 Int'l Des: 2023-161 Owner: SPXS Country: US Constellation: starlink
LEOCIRCULAR

Starlink 30612について

説明を読み込み中...

リアルタイム位置

3D地球を読み込み中...

次回通過

高度履歴

Altitude vs Time

uPlot chart will show altitude changes over time

軌道要素

1 58106U 23161K 25347.28472934 -.00000465 00000-0 -35832-5 0 9996
2 58106 53.1613 193.8671 0001454 95.6910 264.4257 15.30188252121379
Epoch: Dec 13, 2025 • Age: 23 hours

現在のステータス

高度 479.3 km
速度 7.63 km/s
衛星直下点 -14.49°S, 147.21°W
打ち上げ日 Oct 21, 2023
運用期間 2.1 years
タイプ internet

技術仕様

分類 Payload
質量 730.00 kg
乾燥質量 700.00 kg
総質量 730.00 kg
長さ 0.30 m
直径 4.10 m
スパン 29.00 m
形状 Box + pan
製造者 SPXS
バスタイプ Starlink V2M
フェーズステータス In Orbit
所有者/国 SPXS/US

大規模コンステレーション

Loading constellations...